Content
SEND FEEDBACK

Daily
Averages
Monthly
Summary
Australia

SYDNEY, NEW SOUTH WALES


Home > Oceania > Australia > New South Wales
Elevation: 20 feet     Latitude: 33 56S     Longitude: 151 10E

WEATHER
 
SELECT A DAY
Number of Records: 303,896;   Date Range: 7/1/96 - 9/28/14
 
SHARE

PRINT THIS DATA

[ ← Previous Day ]
WEATHER ALMANAC - JANUARY 31, 2013
[ Next Day → ]
[ °C ]   °F
Weather ElementAverageHighLow
Temperature78.3 °F86 °F (3:30 pm)73 °F (5:00 am)
Dewpoint66.7 °F70 °F (11:00 pm)64.4 °F (9:30 am)
Humidity66.3 %83 % (9:30 pm)45 % (2:00 pm)
Barometer29.83 in29.98 in (12:00 am)29.68 in (7:30 pm)
Wind Speed15.4 mph26.5 mph (9:00 pm)
Wind Gust38 mph (9:00 pm)
Weather ElementAverage
Visibility7.5 mi
Wind DirectionE (90.2 °)

Weather ElementTotal
Precipitation---
Cooling Degree Days14.5 (Base 65)
Growing Degree Days29.5 (Base 50)
Averaged from 60 records on January 31, 2013
WEATHER CONDITIONS BREAKOUT
WIND DIRECTION BREAKOUT
WEATHER BY HOUR - JANUARY 31, 2013
[ °C ]   °F
Local TimeTemperatureDewpointHumidityBarometerVisibilityWind DirectionWind SpeedGust SpeedPrecipitationEventsConditions
12:00 AM75.2 °F66.2 °F73 %29.98 in6.2 miNE (40°)6.9 mphMostly Cloudy
12:30 AM75.2 °F68.0 °F78 %29.95 in6.2 miNNE (30°)9.2 mphMostly Cloudy
1:00 AM75.2 °F66.2 °F73 %29.95 in6.2 miNNE (20°)9.2 mphMostly Cloudy
1:30 AM75.2 °F66.2 °F73 %29.95 in6.2 miNNE (30°)10.4 mphMostly Cloudy
2:00 AM74.0 °F66.0 °F71 %29.95 inNNE (20°)9.2 mph
2:00 AM75.2 °F66.2 °F73 %29.95 in6.2 miNNE (20°)9.2 mphMostly Cloudy
2:30 AM75.2 °F66.2 °F73 %29.92 in6.2 miNNE (30°)8.1 mphMostly Cloudy
3:00 AM75.2 °F66.2 °F73 %29.92 in6.2 miNNE (30°)5.8 mphMostly Cloudy
3:00 AM75.0 °F66.0 °F65 %29.94 in12.0 miNNE (30°)5.8 mphHaze
4:00 AM73.4 °F66.2 °F78 %29.92 in6.2 miNNE (20°)5.8 mphScattered Clouds
4:30 AM73.4 °F66.2 °F78 %29.92 in6.2 miNorth (360°)5.8 mphPartly Cloudy
5:00 AM73.0 °F66.0 °F74 %29.93 inNorth (350°)4.6 mph
5:00 AM73.4 °F66.2 °F78 %29.92 in6.2 miNorth (350°)4.6 mphScattered Clouds
6:00 AM73.0 °F67.0 °F75 %29.92 in16.0 miNNW (340°)5.8 mphPartly Cloudy
6:00 AM73.4 °F66.2 °F78 %29.92 in6.2 miNNW (340°)5.8 mphPartly Cloudy
6:30 AM73.4 °F66.2 °F78 %29.92 in6.2 miNW (310°)5.8 mphPartly Cloudy
7:00 AM73.4 °F66.2 °F78 %29.92 in6.2 miNW (320°)6.9 mphPartly Cloudy
7:30 AM75.2 °F66.2 °F73 %29.92 in6.2 miNNW (330°)6.9 mphPartly Cloudy
8:00 AM77.0 °F67.0 °F63 %29.93 inNorth (350°)8.1 mph
8:00 AM77.0 °F66.2 °F69 %29.92 in6.2 miNorth (350°)8.1 mphPartly Cloudy
8:30 AM77.0 °F66.2 °F69 %29.92 in6.2 miNorth (10°)10.4 mphPartly Cloudy
9:00 AM79.0 °F65.0 °F55 %29.92 in16.0 miNorth (10°)12.7 mphPartly Cloudy
9:00 AM78.8 °F66.2 °F65 %29.92 in6.2 miNorth (10°)12.7 mphScattered Clouds
9:30 AM78.8 °F64.4 °F61 %29.89 in6.2 miNorth (360°)11.5 mphScattered Clouds
10:00 AM80.6 °F64.4 °F58 %29.89 in6.2 miNNE (30°)11.5 mphMostly Cloudy
11:00 AM81.0 °F65.0 °F49 %29.89 inNNE (30°)15.0 mph
11:00 AM80.6 °F64.4 °F58 %29.86 in6.2 miNNE (30°)15.0 mphMostly Cloudy
11:30 AM80.6 °F64.4 °F58 %29.86 in6.2 miNNE (30°)18.4 mphMostly Cloudy
11:58 AM82.4 °F64.4 °F54 %29.86 in6.2 miNNE (30°)19.6 mphScattered Clouds
12:00 PM82.4 °F66.2 °F58 %29.86 in6.2 miNNE (30°)18.4 mphScattered Clouds
12:00 PM82.0 °F65.0 °F48 %29.87 in16.0 miNE (40°)18.4 mphPartly Cloudy
12:30 PM82.4 °F64.4 °F54 %29.83 in6.2 miNE (50°)17.3 mphPartly Cloudy
1:00 PM84.2 °F64.4 °F51 %29.83 in6.2 miNE (50°)18.4 mphPartly Cloudy
1:30 PM82.4 °F66.2 °F58 %29.80 in6.2 miNE (50°)20.7 mphPartly Cloudy
2:00 PM84.0 °F66.0 °F45 %29.80 inNE (50°)21.9 mph
2:00 PM84.2 °F66.2 °F55 %29.77 in6.2 miNE (50°)21.9 mphPartly Cloudy
2:30 PM82.4 °F66.2 °F58 %29.77 in6.2 miENE (60°)21.9 mphPartly Cloudy
3:00 PM84.2 °F66.2 °F55 %29.77 in6.2 miNE (50°)23.0 mphPartly Cloudy
3:00 PM83.0 °F66.0 °F48 %29.77 in19.0 miNE (50°)23.0 mphPartly Cloudy
3:30 PM86.0 °F66.2 °F51 %29.74 inNNE (30°)21.9 mphClear
4:00 PM82.4 °F66.2 °F58 %29.74 inNE (40°)24.2 mphClear
4:30 PM82.4 °F66.2 °F58 %29.74 inNE (40°)24.2 mphClear
5:00 PM83.0 °F67.0 °F49 %29.73 inNE (50°)21.9 mph
5:00 PM82.4 °F66.2 °F58 %29.71 inNE (50°)21.9 mphClear
5:30 PM82.4 °F66.2 °F58 %29.71 inNE (40°)23.0 mphClear
6:00 PM82.4 °F66.2 °F58 %29.71 inNNE (30°)21.9 mphClear
6:00 PM82.0 °F67.0 °F51 %29.72 in16.0 miNNE (30°)21.9 mphPartly Cloudy
7:00 PM78.8 °F68.0 °F69 %29.71 in6.2 miNE (40°)21.9 mphPartly Cloudy
7:30 PM78.8 °F69.8 °F74 %29.68 in6.2 miNE (40°)20.7 mphPartly Cloudy
8:00 PM77.0 °F69.0 °F70 %29.71 inNE (40°)23.0 mph
8:00 PM77.0 °F69.8 °F78 %29.71 in6.2 miNE (40°)23.0 mphPartly Cloudy
8:30 PM77.0 °F69.8 °F78 %29.68 in6.2 miNE (40°)23.0 mphPartly Cloudy
9:00 PM77.0 °F69.8 °F78 %29.68 in6.2 miNNE (30°)26.5 mph38.0 mphPartly Cloudy
9:00 PM76.0 °F69.0 °F74 %29.70 in9.0 miNNE (30°)26.5 mphHaze
9:30 PM75.2 °F69.8 °F83 %29.68 in6.2 miNNE (30°)26.5 mphPartly Cloudy
10:00 PM77.0 °F69.8 °F78 %29.68 in6.2 miNE (40°)25.3 mph36.8 mphPartly Cloudy
10:30 PM77.0 °F69.8 °F78 %29.71 in6.2 miNNE (20°)17.3 mphPartly Cloudy
11:00 PM75.0 °F70.0 °F79 %29.71 inNNE (20°)12.7 mph
11:00 PM75.2 °F69.8 °F83 %29.68 in6.2 miNNE (20°)12.7 mphPartly Cloudy
11:30 PM75.2 °F69.8 °F83 %29.68 in6.2 miNNE (20°)10.4 mphPartly Cloudy
Hourly data recorded from YSSY, located miles away from Sydney, New South Wales







STORIES FROM OUR PARTNERS